Location: München
(48.1351°N, 11.5820°E)
Time: 04:14:15
(UTC+02:00)

ISS - Pass Details

Date: 22 May 2021
Orbit: 417 x 422 km, 51.6° (Epoch: 13 June)

Event Time Altitude Azimuth Distance (km) Brightness Sun altitude
Rises 01:21:11 0° 291° (WNW) 2,370 0.3 -21.4°
Reaches altitude 10° 01:23:20 10° 285° (WNW) 1,504 -0.8 -21.4°
Enters shadow 01:24:07 16° 280° (W) 1,202 -1.4 -21.4°
